Location: Elmsmere
(40.9284°N, 73.8207°W)
Time: 05:41:46
(UTC+00:00)

SeaSat 1 - Pass Details

Date: 29 October 2020
Orbit: 744 x 747 km, 108.0° (Epoch: 29 November)

Event Time Altitude Azimuth Distance (km) Brightness Sun altitude
Exits shadow 23:00:00 13° 49° (NE) 2,062 4.2 -12.9°
Maximum altitude 23:00:21 13° 45° (NE) 2,057 4.3 -13.0°
Drops below altitude 10° 23:02:34 10° 18° (NNE) 2,271 4.7 -13.4°
Sets 23:06:02 0° 352° (N) 3,200 5.7 -14.1°
